| time (UTC) | temp F | wind direction | speed MPH | gust MPH | rain 1hr in | rain 24hr in | rain mn in | humidity % | barometer mb |
| 20260506135055 | 62 | 200 | 2.0 | 8.0 | 0.12 | 0.52 | 0.22 | 85 | 1009.8 |
| 20260506134616 | 62 | 202 | 2.0 | 8.0 | 0.12 | 0.52 | 0.22 | 85 | 1009.8 |
| 20260506134057 | 62 | 190 | 2.0 | 8.0 | 0.12 | 0.52 | 0.22 | 86 | 1009.8 |
| 20260506133555 | 62 | 181 | 2.0 | 7.0 | 0.12 | 0.52 | 0.22 | 87 | 1009.8 |
| 20260506133053 | 62 | 196 | 2.0 | 6.0 | 0.12 | 0.52 | 0.22 | 88 | 1009.8 |
| 20260506132552 | 61 | 327 | 2.0 | 7.0 | 0.12 | 0.52 | 0.22 | 88 | 1009.8 |
| 20260506132051 | 61 | 226 | 1.0 | 6.0 | 0.12 | 0.52 | 0.22 | 88 | 1010.0 |
| 20260506131503 | 61 | 225 | 2.0 | 6.0 | 0.12 | 0.52 | 0.22 | 88 | 1010.0 |
| 20260506131003 | 61 | 244 | 2.0 | 10.0 | 0.12 | 0.52 | 0.22 | 88 | 1010.1 |
| 20260506130502 | 61 | 206 | 3.0 | 9.0 | 0.11 | 0.51 | 0.21 | 87 | 1010.1 |
| 20260506130002 | 61 | 200 | 4.0 | 9.0 | 0.09 | 0.50 | 0.20 | 86 | 1010.2 |
| 20260506125502 | 62 | 214 | 2.0 | 6.0 | 0.06 | 0.47 | 0.16 | 85 | 1010.2 |
| 20260506125001 | 63 | 203 | 3.0 | 5.0 | 0.01 | 0.43 | 0.11 | 84 | 1010.1 |
| 20260506124501 | 63 | 255 | 3.0 | 6.0 | 0.00 | 0.42 | 0.10 | 84 | 1010.0 |
| 20260506124002 | 63 | 234 | 2.0 | 9.0 | 0.00 | 0.42 | 0.10 | 84 | 1010.0 |
| 20260506123603 | 63 | 225 | 3.0 | 9.0 | 0.00 | 0.42 | 0.10 | 83 | 1010.1 |
| 20260506123100 | 63 | 242 | 3.0 | 6.0 | 0.01 | 0.42 | 0.10 | 84 | 1010.1 |
| 20260506122600 | 63 | 218 | 2.0 | 9.0 | 0.01 | 0.42 | 0.10 | 85 | 1010.1 |
| 20260506122100 | 63 | 205 | 3.0 | 9.0 | 0.01 | 0.42 | 0.10 | 84 | 1010.0 |
| 20260506121608 | 63 | 194 | 2.0 | 7.0 | 0.01 | 0.42 | 0.10 | 86 | 1010.0 |
| 20260506121058 | 62 | 201 | 2.0 | 7.0 | 0.02 | 0.42 | 0.10 | 86 | 1010.0 |
| 20260506120558 | 62 | 217 | 2.0 | 8.0 | 0.02 | 0.42 | 0.10 | 86 | 1010.0 |
| 20260506115557 | 62 | 211 | 2.0 | 8.0 | 0.02 | 0.43 | 0.10 | 87 | 1010.0 |
| 20260506115055 | 62 | 208 | 2.0 | 8.0 | 0.02 | 0.43 | 0.10 | 87 | 1010.1 |
| 20260506114556 | 62 | 200 | 3.0 | 8.0 | 0.02 | 0.43 | 0.10 | 87 | 1010.2 |
| 20260506114055 | 62 | 227 | 2.0 | 7.0 | 0.02 | 0.43 | 0.10 | 88 | 1010.1 |
| 20260506113555 | 62 | 178 | 3.0 | 7.0 | 0.02 | 0.43 | 0.10 | 88 | 1010.1 |
| 20260506113055 | 62 | 199 | 2.0 | 8.0 | 0.02 | 0.42 | 0.09 | 88 | 1010.1 |
| 20260506112555 | 62 | 208 | 2.0 | 6.0 | 0.02 | 0.42 | 0.09 | 88 | 1010.1 |
| 20260506112055 | 62 | 206 | 2.0 | 7.0 | 0.02 | 0.42 | 0.09 | 88 | 1010.1 |
| 20260506111611 | 62 | 236 | 2.0 | 8.0 | 0.01 | 0.41 | 0.09 | 88 | 1010.1 |
| 20260506111054 | 61 | 177 | 3.0 | 8.0 | 0.01 | 0.41 | 0.09 | 88 | 1010.1 |
| 20260506110554 | 62 | 195 | 2.0 | 7.0 | 0.02 | 0.41 | 0.09 | 88 | 1010.1 |
| 20260506110054 | 62 | 198 | 1.0 | 8.0 | 0.02 | 0.41 | 0.09 | 88 | 1010.2 |
| 20260506105553 | 62 | 208 | 2.0 | 8.0 | 0.02 | 0.42 | 0.09 | 87 | 1010.2 |
| 20260506105053 | 62 | 209 | 2.0 | 10.0 | 0.03 | 0.42 | 0.09 | 87 | 1010.3 |
| 20260506104553 | 62 | 205 | 2.0 | 10.0 | 0.03 | 0.42 | 0.09 | 88 | 1010.3 |
| 20260506104055 | 62 | 233 | 2.0 | 7.0 | 0.04 | 0.42 | 0.09 | 88 | 1010.3 |
| 20260506103551 | 62 | 205 | 1.0 | 6.0 | 0.03 | 0.41 | 0.08 | 88 | 1010.4 |
| 20260506103051 | 62 | 194 | 2.0 | 6.0 | 0.04 | 0.41 | 0.08 | 88 | 1010.4 |
| 20260506102551 | 62 | 142 | 0.0 | 5.0 | 0.05 | 0.41 | 0.08 | 88 | 1010.3 |
| 20260506102053 | 62 | 205 | 2.0 | 5.0 | 0.05 | 0.41 | 0.08 | 88 | 1010.4 |
| 20260506101550 | 62 | 217 | 0.0 | 3.0 | 0.06 | 0.41 | 0.08 | 88 | 1010.5 |
| 20260506101049 | 61 | 200 | 0.0 | 6.0 | 0.06 | 0.41 | 0.08 | 88 | 1010.6 |
| 20260506100549 | 61 | 256 | 1.0 | 6.0 | 0.05 | 0.40 | 0.07 | 89 | 1010.6 |
| 20260506100049 | 61 | 230 | 0.0 | 6.0 | 0.04 | 0.39 | 0.06 | 88 | 1010.8 |
| 20260506095548 | 61 | 205 | 0.0 | 6.0 | 0.04 | 0.39 | 0.06 | 88 | 1010.8 |
| 20260506095049 | 61 | 52 | 0.0 | 3.0 | 0.03 | 0.39 | 0.06 | 88 | 1010.8 |
| 20260506094549 | 61 | 82 | 0.0 | 5.0 | 0.03 | 0.39 | 0.06 | 88 | 1010.8 |
| 20260506094049 | 61 | 140 | 0.0 | 5.0 | 0.02 | 0.38 | 0.05 | 88 | 1010.8 |
| 20260506093552 | 61 | 26 | 0.0 | 3.0 | 0.02 | 0.37 | 0.04 | 87 | 1010.8 |
| 20260506093053 | 61 | 175 | 0.0 | 4.0 | 0.02 | 0.37 | 0.04 | 87 | 1010.8 |
| 20260506092550 | 61 | 155 | 0.0 | 4.0 | 0.01 | 0.36 | 0.03 | 87 | 1010.8 |
| 20260506092051 | 61 | 209 | 0.0 | 4.0 | 0.01 | 0.36 | 0.03 | 87 | 1010.7 |
| 20260506091548 | 61 | 217 | 0.0 | 5.0 | 0.00 | 0.35 | 0.02 | 86 | 1010.7 |
| 20260506091046 | 61 | 192 | 1.0 | 5.0 | 0.00 | 0.35 | 0.02 | 87 | 1010.7 |
| 20260506090548 | 61 | 178 | 0.0 | 3.0 | 0.00 | 0.35 | 0.02 | 88 | 1010.7 |
| 20260506090045 | 61 | 159 | 0.0 | 2.0 | 0.00 | 0.35 | 0.02 | 89 | 1010.6 |
| 20260506085544 | 61 | 75 | 0.0 | 5.0 | 0.00 | 0.35 | 0.02 | 89 | 1010.6 |
| 20260506085043 | 61 | 35 | 1.0 | 5.0 | 0.00 | 0.35 | 0.02 | 89 | 1010.6 |
| 20260506084543 | 61 | 92 | 0.0 | 4.0 | 0.00 | 0.35 | 0.02 | 89 | 1010.5 |
| 20260506084043 | 60 | 74 | 0.0 | 4.0 | 0.00 | 0.35 | 0.02 | 89 | 1010.5 |
| 20260506083543 | 60 | 69 | 0.0 | 4.0 | 0.00 | 0.35 | 0.02 | 88 | 1010.5 |
| 20260506083055 | 60 | 105 | 0.0 | 3.0 | 0.01 | 0.35 | 0.02 | 89 | 1010.5 |
| 20260506082541 | 60 | 138 | 0.0 | 3.0 | 0.01 | 0.35 | 0.02 | 89 | 1010.4 |
| 20260506082041 | 60 | 193 | 0.0 | 3.0 | 0.01 | 0.35 | 0.02 | 90 | 1010.4 |
| 20260506081547 | 60 | 80 | 0.0 | 4.0 | 0.01 | 0.35 | 0.02 | 91 | 1010.4 |
| 20260506081039 | 60 | 83 | 1.0 | 4.0 | 0.01 | 0.35 | 0.02 | 90 | 1010.3 |
| 20260506080540 | 60 | 88 | 1.0 | 4.0 | 0.01 | 0.35 | 0.02 | 90 | 1010.3 |
| 20260506073034 | 59 | 76 | 2.0 | 6.0 | 0.00 | 0.35 | 0.02 | 90 | 1010.5 |
| 20260506072532 | 59 | 28 | 2.0 | 6.0 | 0.00 | 0.35 | 0.02 | 90 | 1010.6 |
| 20260506072033 | 59 | 63 | 3.0 | 6.0 | 0.00 | 0.35 | 0.02 | 90 | 1010.6 |
| 20260506071534 | 59 | 80 | 2.0 | 6.0 | 0.00 | 0.35 | 0.02 | 90 | 1010.6 |
| 20260506071031 | 59 | 36 | 2.0 | 4.0 | 0.01 | 0.35 | 0.02 | 90 | 1010.6 |
| 20260506070531 | 59 | 55 | 2.0 | 5.0 | 0.01 | 0.35 | 0.02 | 90 | 1010.6 |
| 20260506062026 | 58 | 49 | 1.0 | 4.0 | 0.02 | 0.35 | 0.02 | 90 | 1010.7 |
| 20260506061535 | 58 | 46 | 2.0 | 3.0 | 0.02 | 0.35 | 0.02 | 90 | 1010.6 |
| 20260506061026 | 58 | 42 | 0.0 | 3.0 | 0.01 | 0.34 | 0.01 | 90 | 1010.6 |
| 20260506060526 | 58 | 42 | 1.0 | 3.0 | 0.01 | 0.34 | 0.01 | 90 | 1010.7 |
| 20260506051024 | 57 | 19 | 0.0 | 4.0 | 0.00 | 0.33 | 0.00 | 91 | 1010.7 |
| 20260506050519 | 57 | 19 | 1.0 | 4.0 | 0.00 | 0.33 | 0.00 | 91 | 1010.6 |
| 20260506045019 | 57 | 17 | 1.0 | 3.0 | 0.00 | 0.33 | 0.00 | 91 | 1010.7 |
| 20260506044520 | 57 | 19 | 2.0 | 3.0 | 0.00 | 0.33 | 0.00 | 91 | 1010.7 |
| 20260506044022 | 57 | 16 | 1.0 | 3.0 | 0.00 | 0.33 | 0.00 | 91 | 1010.7 |
| 20260506043517 | 57 | 42 | 0.0 | 3.0 | 0.00 | 0.33 | 0.00 | 91 | 1010.6 |
| 20260506043017 | 57 | 25 | 0.0 | 2.0 | 0.00 | 0.33 | 0.00 | 91 | 1010.6 |
| 20260506042517 | 57 | 22 | 0.0 | 2.0 | 0.00 | 0.33 | 0.00 | 91 | 1010.7 |
| 20260506042017 | 56 | 22 | 0.0 | 2.0 | 0.00 | 0.33 | 0.00 | 91 | 1010.7 |
| 20260506041516 | 56 | 22 | 0.0 | 3.0 | 0.00 | 0.33 | 0.00 | 91 | 1010.7 |
| 20260506041014 | 56 | 22 | 1.0 | 3.0 | 0.00 | 0.33 | 0.00 | 91 | 1010.6 |
| 20260506040519 | 56 | 32 | 1.0 | 2.0 | 0.00 | 0.33 | 0.00 | 91 | 1010.6 |
| 20260506040016 | 56 | 60 | 0.0 | 2.0 | 0.00 | 0.33 | 0.00 | 91 | 1010.7 |
| 20260506035512 | 56 | 60 | 0.0 | 2.0 | 0.00 | 0.33 | 0.00 | 91 | 1010.9 |
| 20260506035012 | 56 | 60 | 0.0 | 2.0 | 0.00 | 0.33 | 0.00 | 91 | 1011.0 |
| 20260506034511 | 56 | 60 | 0.0 | 2.0 | 0.00 | 0.33 | 0.00 | 91 | 1011.0 |
| 20260506034011 | 56 | 60 | 0.0 | 2.0 | 0.00 | 0.33 | 0.00 | 91 | 1010.9 |
| 20260506033510 | 56 | 60 | 0.0 | 2.0 | 0.00 | 0.33 | 0.00 | 91 | 1010.9 |
| 20260506033015 | 56 | 60 | 0.0 | 2.0 | 0.00 | 0.33 | 0.00 | 91 | 1011.0 |
| 20260506032510 | 56 | 60 | 0.0 | 2.0 | 0.00 | 0.33 | 0.00 | 91 | 1011.0 |
| 20260506032010 | 56 | 60 | 0.0 | 2.0 | 0.00 | 0.33 | 0.00 | 91 | 1011.0 |
| 20260506031510 | 57 | 60 | 0.0 | 2.0 | 0.00 | 0.33 | 0.00 | 91 | 1011.1 |
| 20260506031009 | 57 | 60 | 0.0 | 2.0 | 0.00 | 0.33 | 0.00 | 91 | 1011.1 |
| 20260506030507 | 57 | 61 | 0.0 | 3.0 | 0.00 | 0.33 | 0.00 | 91 | 1011.2 |
| 20260506030007 | 57 | 65 | 1.0 | 3.0 | 0.00 | 0.33 | 0.00 | 91 | 1011.2 |
| 20260506025509 | 57 | 38 | 0.0 | 3.0 | 0.00 | 0.33 | 0.00 | 91 | 1011.2 |
| 20260506025007 | 57 | 38 | 0.0 | 3.0 | 0.00 | 0.33 | 0.00 | 91 | 1011.2 |
| 20260506024520 | 57 | 35 | 0.0 | 3.0 | 0.00 | 0.33 | 0.00 | 91 | 1011.3 |
| 20260506024006 | 57 | 24 | 0.0 | 2.0 | 0.00 | 0.33 | 0.00 | 91 | 1011.3 |
| 20260506023506 | 57 | 24 | 0.0 | 2.0 | 0.00 | 0.33 | 0.00 | 91 | 1011.3 |
| 20260506023006 | 56 | 24 | 0.0 | 2.0 | 0.00 | 0.33 | 0.00 | 91 | 1011.5 |
| 20260506022505 | 56 | 24 | 0.0 | 2.0 | 0.00 | 0.33 | 0.00 | 91 | 1011.5 |
| 20260506022008 | 56 | 24 | 0.0 | 2.0 | 0.00 | 0.33 | 0.00 | 91 | 1011.5 |
| 20260506021509 | 56 | 24 | 0.0 | 2.0 | 0.00 | 0.33 | 0.00 | 91 | 1011.5 |
| 20260506021004 | 57 | 24 | 0.0 | 2.0 | 0.00 | 0.33 | 0.00 | 91 | 1011.5 |
| 20260506020503 | 57 | 24 | 0.0 | 2.0 | 0.00 | 0.33 | 0.00 | 91 | 1011.6 |
| 20260506020005 | 57 | 24 | 0.0 | 2.0 | 0.00 | 0.33 | 0.00 | 91 | 1011.6 |
| 20260506015506 | 57 | 24 | 0.0 | 2.0 | 0.00 | 0.33 | 0.00 | 91 | 1011.7 |
| 20260506015004 | 57 | 24 | 0.0 | 2.0 | 0.00 | 0.33 | 0.00 | 91 | 1011.6 |
| 20260506014508 | 57 | 24 | 0.0 | 2.0 | 0.00 | 0.33 | 0.00 | 91 | 1011.5 |
| 20260506014004 | 57 | 24 | 0.0 | 2.0 | 0.00 | 0.33 | 0.00 | 91 | 1011.7 |
| 20260506013503 | 57 | 24 | 0.0 | 2.0 | 0.00 | 0.33 | 0.00 | 91 | 1011.7 |
| 20260506013003 | 57 | 24 | 0.0 | 2.0 | 0.00 | 0.33 | 0.00 | 91 | 1011.7 |
| 20260506012503 | 56 | 24 | 0.0 | 2.0 | 0.00 | 0.33 | 0.00 | 91 | 1011.6 |
| 20260506012003 | 56 | 24 | 0.0 | 2.0 | 0.00 | 0.33 | 0.00 | 91 | 1011.6 |
| 20260506011503 | 56 | 24 | 0.0 | 3.0 | 0.00 | 0.33 | 0.00 | 91 | 1011.6 |
| 20260506011001 | 56 | 24 | 0.0 | 3.0 | 0.00 | 0.33 | 0.00 | 91 | 1011.5 |
| 20260506010504 | 56 | 21 | 0.0 | 3.0 | 0.00 | 0.33 | 0.00 | 91 | 1011.6 |
| 20260506010001 | 56 | 360 | 1.0 | 3.0 | 0.00 | 0.33 | 0.00 | 91 | 1011.6 |
| 20260506005501 | 56 | 360 | 0.0 | 3.0 | 0.00 | 0.33 | 0.00 | 91 | 1011.5 |
| 20260506005002 | 56 | 360 | 1.0 | 3.0 | 0.00 | 0.33 | 0.00 | 91 | 1011.5 |
| 20260506004501 | 56 | 350 | 0.0 | 3.0 | 0.00 | 0.33 | 0.00 | 91 | 1011.6 |
| 20260506004100 | 56 | 288 | 1.0 | 2.0 | 0.00 | 0.33 | 0.00 | 91 | 1011.6 |
| 20260506003600 | 56 | 288 | 0.0 | 2.0 | 0.00 | 0.33 | 0.00 | 91 | 1011.7 |
| 20260506003100 | 56 | 288 | 1.0 | 2.0 | 0.00 | 0.33 | 0.00 | 91 | 1011.6 |
| 20260506002601 | 56 | 288 | 0.0 | 2.0 | 0.00 | 0.33 | 0.00 | 91 | 1011.6 |
| 20260506002100 | 56 | 288 | 0.0 | 2.0 | 0.00 | 0.33 | 0.00 | 91 | 1011.7 |
| 20260506001604 | 56 | 288 | 0.0 | 2.0 | 0.00 | 0.33 | 0.00 | 91 | 1011.7 |
| 20260506001059 | 56 | 288 | 0.0 | 2.0 | 0.00 | 0.33 | 0.00 | 91 | 1011.7 |
| 20260506000600 | 56 | 288 | 0.0 | 2.0 | 0.00 | 0.33 | 0.00 | 91 | 1011.7 |
| 20260506000119 | 56 | 288 | 0.0 | 2.0 | 0.00 | 0.33 | 0.00 | 91 | 1011.8 |
| 20260505235600 | 56 | 288 | 0.0 | 0.0 | 0.00 | 0.33 | 0.00 | 91 | 1011.9 |
| 20260505235056 | 56 | 288 | 0.0 | 0.0 | 0.00 | 0.33 | 0.00 | 91 | 1012.0 |
| 20260505234557 | 56 | 288 | 0.0 | 0.0 | 0.00 | 0.33 | 0.00 | 91 | 1012.1 |
| 20260505234056 | 56 | 288 | 0.0 | 0.0 | 0.00 | 0.33 | 0.00 | 91 | 1012.1 |
| 20260505233555 | 56 | 288 | 0.0 | 0.0 | 0.00 | 0.33 | 0.00 | 91 | 1012.1 |
| 20260505233059 | 56 | 288 | 0.0 | 1.0 | 0.00 | 0.33 | 0.00 | 91 | 1012.3 |
| 20260505232553 | 56 | 288 | 0.0 | 2.0 | 0.00 | 0.33 | 0.00 | 91 | 1012.2 |
| 20260505232055 | 56 | 288 | 0.0 | 2.0 | 0.00 | 0.33 | 0.00 | 91 | 1012.3 |
| 20260505231606 | 56 | 288 | 0.0 | 2.0 | 0.00 | 0.33 | 0.00 | 91 | 1012.4 |
| 20260505231054 | 56 | 288 | 0.0 | 0.0 | 0.00 | 0.33 | 0.00 | 91 | 1012.3 |
| 20260505230552 | 56 | 288 | 0.0 | 1.0 | 0.00 | 0.33 | 0.00 | 91 | 1012.3 |
| 20260505230104 | 56 | 288 | 0.0 | 1.0 | 0.00 | 0.33 | 0.00 | 91 | 1012.3 |
| 20260505225554 | 56 | 288 | 0.0 | 2.0 | 0.00 | 0.33 | 0.00 | 91 | 1012.3 |
| 20260505225052 | 56 | 288 | 0.0 | 2.0 | 0.00 | 0.33 | 0.00 | 91 | 1012.4 |
| 20260505224552 | 56 | 288 | 0.0 | 2.0 | 0.00 | 0.33 | 0.00 | 91 | 1012.4 |
| 20260505224051 | 56 | 288 | 0.0 | 2.0 | 0.00 | 0.33 | 0.00 | 91 | 1012.4 |
| 20260505223553 | 56 | 288 | 0.0 | 2.0 | 0.00 | 0.33 | 0.00 | 91 | 1012.5 |
| 20260505223050 | 56 | 288 | 0.0 | 2.0 | 0.00 | 0.33 | 0.00 | 91 | 1012.5 |
| 20260505222550 | 56 | 279 | 0.0 | 2.0 | 0.00 | 0.33 | 0.00 | 91 | 1012.6 |
| 20260505222050 | 56 | 279 | 0.0 | 2.0 | 0.00 | 0.33 | 0.00 | 91 | 1012.6 |
| 20260505221557 | 56 | 279 | 0.0 | 0.0 | 0.00 | 0.33 | 0.00 | 91 | 1012.6 |
| 20260505221048 | 56 | 279 | 0.0 | 2.0 | 0.00 | 0.33 | 0.00 | 91 | 1012.5 |
| 20260505220549 | 56 | 279 | 0.0 | 2.0 | 0.00 | 0.33 | 0.00 | 91 | 1012.5 |
| 20260505220047 | 56 | 279 | 0.0 | 2.0 | 0.00 | 0.33 | 0.00 | 91 | 1012.6 |
| 20260505215547 | 56 | 279 | 0.0 | 2.0 | 0.00 | 0.33 | 0.33 | 91 | 1012.6 |
| 20260505215046 | 56 | 279 | 0.0 | 2.0 | 0.00 | 0.33 | 0.33 | 91 | 1012.6 |
| 20260505214546 | 56 | 279 | 0.0 | 0.0 | 0.00 | 0.33 | 0.33 | 91 | 1012.6 |
| 20260505214049 | 56 | 279 | 0.0 | 0.0 | 0.01 | 0.33 | 0.33 | 91 | 1012.7 |
| 20260505213547 | 56 | 279 | 0.0 | 2.0 | 0.01 | 0.33 | 0.33 | 91 | 1012.8 |
| 20260505213046 | 56 | 279 | 0.0 | 2.0 | 0.01 | 0.33 | 0.33 | 91 | 1012.7 |
| 20260505212546 | 56 | 279 | 0.0 | 2.0 | 0.01 | 0.33 | 0.33 | 91 | 1012.8 |
| 20260505212046 | 56 | 279 | 0.0 | 2.0 | 0.02 | 0.33 | 0.33 | 91 | 1012.8 |
| 20260505211546 | 56 | 279 | 1.0 | 2.0 | 0.02 | 0.33 | 0.33 | 91 | 1012.9 |
| 20260505211047 | 56 | 275 | 0.0 | 0.0 | 0.02 | 0.33 | 0.33 | 91 | 1013.0 |
| 20260505210545 | 56 | 275 | 0.0 | 0.0 | 0.02 | 0.33 | 0.33 | 91 | 1013.0 |
| 20260505210045 | 56 | 275 | 0.0 | 0.0 | 0.02 | 0.33 | 0.33 | 91 | 1013.0 |
| 20260505205548 | 56 | 275 | 0.0 | 1.0 | 0.03 | 0.33 | 0.33 | 91 | 1012.9 |
| 20260505205044 | 56 | 275 | 0.0 | 2.0 | 0.04 | 0.33 | 0.33 | 91 | 1013.0 |
| 20260505204550 | 56 | 275 | 0.0 | 2.0 | 0.06 | 0.33 | 0.33 | 91 | 1013.0 |
| 20260505204045 | 56 | 275 | 0.0 | 2.0 | 0.05 | 0.32 | 0.32 | 91 | 1013.0 |
| 20260505203545 | 56 | 270 | 0.0 | 2.0 | 0.05 | 0.32 | 0.32 | 91 | 1013.0 |
| 20260505203054 | 56 | 270 | 0.0 | 2.0 | 0.05 | 0.32 | 0.32 | 91 | 1013.1 |
| 20260505202545 | 56 | 42 | 0.0 | 2.0 | 0.05 | 0.32 | 0.32 | 91 | 1013.2 |
| 20260505202045 | 56 | 42 | 0.0 | 0.0 | 0.04 | 0.31 | 0.31 | 91 | 1013.1 |
| 20260505201547 | 56 | 42 | 0.0 | 2.0 | 0.05 | 0.31 | 0.31 | 91 | 1013.0 |
| 20260505201044 | 56 | 42 | 0.0 | 2.0 | 0.05 | 0.31 | 0.31 | 91 | 1013.0 |
| 20260505200544 | 56 | 42 | 0.0 | 2.0 | 0.05 | 0.31 | 0.31 | 91 | 1013.0 |
| 20260505200046 | 56 | 42 | 0.0 | 2.0 | 0.05 | 0.31 | 0.31 | 91 | 1013.1 |
| 20260505195544 | 56 | 42 | 0.0 | 2.0 | 0.03 | 0.30 | 0.30 | 91 | 1013.0 |
| 20260505195045 | 56 | 42 | 0.0 | 2.0 | 0.02 | 0.28 | 0.28 | 91 | 1012.9 |
| 20260505194553 | 56 | 42 | 0.0 | 2.0 | 0.01 | 0.28 | 0.28 | 91 | 1012.9 |
| 20260505194042 | 56 | 42 | 0.0 | 2.0 | 0.02 | 0.28 | 0.28 | 91 | 1012.9 |
| 20260505193541 | 56 | 42 | 0.0 | 2.0 | 0.02 | 0.28 | 0.28 | 91 | 1013.0 |
| 20260505193042 | 56 | 42 | 0.0 | 2.0 | 0.02 | 0.28 | 0.28 | 91 | 1013.0 |
| 20260505192541 | 55 | 42 | 0.0 | 2.0 | 0.02 | 0.28 | 0.28 | 91 | 1012.9 |
| 20260505192041 | 56 | 42 | 1.0 | 2.0 | 0.02 | 0.28 | 0.28 | 91 | 1012.9 |
| 20260505191554 | 56 | 42 | 0.0 | 2.0 | 0.02 | 0.27 | 0.27 | 91 | 1012.8 |
| 20260505191041 | 55 | 42 | 0.0 | 2.0 | 0.02 | 0.27 | 0.27 | 91 | 1012.9 |
| 20260505190542 | 55 | 42 | 0.0 | 2.0 | 0.02 | 0.27 | 0.27 | 91 | 1013.0 |
| 20260505190042 | 55 | 42 | 0.0 | 4.0 | 0.02 | 0.27 | 0.27 | 91 | 1012.9 |
| 20260505185545 | 56 | 42 | 1.0 | 4.0 | 0.02 | 0.27 | 0.27 | 91 | 1012.9 |
| 20260505185040 | 56 | 48 | 0.0 | 4.0 | 0.02 | 0.27 | 0.27 | 91 | 1012.8 |
| 20260505184540 | 56 | 46 | 0.0 | 2.0 | 0.02 | 0.27 | 0.27 | 91 | 1012.8 |
| 20260505184040 | 55 | 46 | 0.0 | 2.0 | 0.01 | 0.26 | 0.26 | 91 | 1012.8 |
| 20260505183539 | 55 | 46 | 0.0 | 2.0 | 0.00 | 0.25 | 0.25 | 91 | 1012.8 |
| 20260505183041 | 55 | 46 | 0.0 | 2.0 | 0.00 | 0.25 | 0.25 | 91 | 1012.8 |
| 20260505182540 | 55 | 46 | 0.0 | 0.0 | 0.00 | 0.25 | 0.25 | 91 | 1012.7 |
| 20260505182042 | 55 | 46 | 0.0 | 0.0 | 0.00 | 0.25 | 0.25 | 91 | 1012.7 |
| 20260505181540 | 55 | 46 | 0.0 | 2.0 | 0.00 | 0.25 | 0.25 | 91 | 1012.7 |
| 20260505181039 | 55 | 46 | 0.0 | 2.0 | 0.01 | 0.25 | 0.25 | 91 | 1012.7 |
| 20260505180538 | 55 | 46 | 0.0 | 3.0 | 0.01 | 0.25 | 0.25 | 91 | 1012.7 |
| 20260505180046 | 55 | 46 | 0.0 | 3.0 | 0.02 | 0.25 | 0.25 | 91 | 1012.7 |
| 20260505175541 | 55 | 28 | 0.0 | 2.0 | 0.02 | 0.25 | 0.25 | 91 | 1012.8 |
| 20260505175039 | 55 | 28 | 1.0 | 2.0 | 0.02 | 0.25 | 0.25 | 91 | 1012.7 |
| 20260505174540 | 55 | 28 | 0.0 | 2.0 | 0.02 | 0.25 | 0.25 | 91 | 1012.7 |
| 20260505174039 | 55 | 28 | 0.0 | 3.0 | 0.02 | 0.25 | 0.25 | 91 | 1012.7 |
| 20260505173538 | 55 | 28 | 0.0 | 3.0 | 0.02 | 0.25 | 0.25 | 91 | 1012.7 |
| 20260505173037 | 55 | 28 | 1.0 | 3.0 | 0.03 | 0.25 | 0.25 | 90 | 1012.7 |
| 20260505172538 | 55 | 53 | 0.0 | 3.0 | 0.04 | 0.25 | 0.25 | 90 | 1012.8 |
| 20260505172037 | 55 | 53 | 0.0 | 2.0 | 0.04 | 0.25 | 0.25 | 90 | 1012.8 |
| 20260505171538 | 55 | 53 | 0.0 | 2.0 | 0.05 | 0.25 | 0.25 | 91 | 1012.9 |
| 20260505171036 | 55 | 67 | 0.0 | 2.0 | 0.04 | 0.24 | 0.24 | 91 | 1012.8 |
| 20260505170535 | 55 | 67 | 0.0 | 2.0 | 0.04 | 0.24 | 0.24 | 91 | 1012.8 |
| 20260505170035 | 55 | 67 | 0.0 | 3.0 | 0.04 | 0.24 | 0.24 | 90 | 1012.9 |
| 20260505165535 | 55 | 68 | 0.0 | 3.0 | 0.04 | 0.24 | 0.24 | 90 | 1012.9 |
| 20260505165035 | 55 | 34 | 1.0 | 3.0 | 0.05 | 0.24 | 0.24 | 90 | 1012.9 |
| 20260505164535 | 56 | 28 | 1.0 | 3.0 | 0.06 | 0.24 | 0.24 | 90 | 1012.8 |
| 20260505164035 | 56 | 28 | 0.0 | 2.0 | 0.06 | 0.23 | 0.23 | 90 | 1012.9 |
| 20260505163535 | 56 | 28 | 0.0 | 3.0 | 0.06 | 0.23 | 0.23 | 90 | 1012.9 |
| 20260505163034 | 56 | 27 | 0.0 | 2.0 | 0.06 | 0.22 | 0.22 | 90 | 1013.0 |
| 20260505162533 | 56 | 27 | 0.0 | 2.0 | 0.05 | 0.21 | 0.21 | 90 | 1013.0 |
| 20260505162033 | 56 | 27 | 0.0 | 3.0 | 0.05 | 0.21 | 0.21 | 90 | 1013.1 |
| 20260505161532 | 56 | 27 | 1.0 | 3.0 | 0.05 | 0.20 | 0.20 | 90 | 1013.1 |
| 20260505161032 | 56 | 28 | 1.0 | 3.0 | 0.05 | 0.20 | 0.20 | 90 | 1013.2 |
| 20260505160533 | 56 | 33 | 0.0 | 3.0 | 0.05 | 0.20 | 0.20 | 90 | 1013.2 |
| 20260505153031 | 56 | 15 | 0.0 | 2.0 | 0.03 | 0.17 | 0.17 | 89 | 1013.4 |
| 20260505152529 | 56 | 15 | 0.0 | 2.0 | 0.04 | 0.17 | 0.17 | 89 | 1013.4 |
| 20260505152029 | 56 | 15 | 0.0 | 2.0 | 0.05 | 0.17 | 0.17 | 89 | 1013.4 |
| 20260505151533 | 56 | 15 | 0.0 | 2.0 | 0.05 | 0.16 | 0.16 | 89 | 1013.5 |
| 20260505151029 | 56 | 15 | 0.0 | 2.0 | 0.06 | 0.16 | 0.16 | 89 | 1013.4 |
| 20260505150529 | 56 | 15 | 0.0 | 2.0 | 0.06 | 0.16 | 0.16 | 89 | 1013.4 |
| 20260505140526 | 56 | 50 | 0.0 | 2.0 | 0.06 | 0.09 | 0.09 | 87 | 1013.9 |